New Paris, IN

9:47 PM EDT on July 23, 2016 (GMT -0400)
Goshen Municipal

Weather History for KGSH - July, 2013

Change the Weather History Date:

Friday, July 19, 2013

  Actual Average Record
Temperature  
Mean Temperature 85 °F -  
Max Temperature 96 °F 84 °F 96 °F (1974)
Min Temperature 75 °F 65 °F 48 °F (1979)
Cooling Degree Days 20    
Growing Degree Days 35 (Base 50)    
Moisture  
Dew Point 72 °F    
Average Humidity 66    
Maximum Humidity 87    
Minimum Humidity 44    
Precipitation  
Precipitation 0.00 in - - ()
Sea Level Pressure  
Sea Level Pressure 29.88 in    
Wind  
Wind Speed 11 mph (SW)    
Max Wind Speed 22 mph    
Max Gust Speed 28 mph    
Visibility 9 miles    
Events      
Averages and records for this station are not official NWS values.
T = Trace of Precipitation, MM = Missing Value Source: NWS Daily Summary

Daily Weather History Graph

Daily Weather History Graph

Search for Another Location

Airport or City:

Trip Planner

Search our weather history database for the weather conditions in past years. The results will help you decide how hot, cold, wet, or windy it might be!

Date:

Astronomy

Jul. 19, 2013 Rise Set
Actual Time 6:25 AM EDT 9:12 PM EDT
Civil Twilight 5:53 AM EDT 9:45 PM EDT
Nautical Twilight 5:12 AM EDT 10:25 PM EDT
Astronomical Twilight 4:25 AM EDT 11:12 PM EDT
Moon 6:14 PM EDT (7/19) 3:06 AM EDT (7/19)
Length of Visible Light 15h 51m
Length of Day
14h 46m
Waxing Gibbous, 86% of the Moon is Illuminated
Jul 19
Waxing Gibbous
Jul 22
Full
Jul 29
Last Quarter
Aug 6
New
Aug 14
First Quarter

Hourly Weather History & Observations

Time (EDT) Temp. Heat Index Dew Point Humidity Pressure Visibility Wind Dir Wind Speed Gust Speed Precip Events Conditions
12:53 AM 78.1 °F - 72.0 °F 81% 29.99 in 10.0 mi SW 6.9 mph - N/A   Clear
1:53 AM 78.1 °F - 72.0 °F 81% 29.98 in 10.0 mi SW 6.9 mph - N/A   Clear
2:53 AM 75.9 °F - 72.0 °F 87% 29.96 in 7.0 mi SW 6.9 mph - N/A   Clear
3:53 AM 75.9 °F - 72.0 °F 87% 29.95 in 6.0 mi SSW 5.8 mph - N/A   Clear
4:53 AM 75.9 °F - 72.0 °F 87% 29.94 in 5.0 mi SW 6.9 mph - N/A   Clear
5:53 AM 75.9 °F - 72.0 °F 87% 29.92 in 5.0 mi SW 8.1 mph - N/A   Clear
6:53 AM 75.9 °F - 72.0 °F 87% 29.94 in 4.0 mi SW 8.1 mph - N/A   Clear
7:53 AM 78.1 °F - 72.0 °F 81% 29.93 in 6.0 mi SW 10.4 mph - N/A   Haze
8:53 AM 81.0 °F 85.2 °F 72.0 °F 74% 29.94 in 10.0 mi SW 11.5 mph - N/A   Clear
9:53 AM 86.0 °F 92.2 °F 72.0 °F 63% 29.94 in 10.0 mi SW 12.7 mph 19.6 mph N/A   Clear
10:53 AM 88.0 °F 94.7 °F 72.0 °F 59% 29.93 in 10.0 mi SW 17.3 mph 23.0 mph N/A   Clear
11:53 AM 91.0 °F 98.2 °F 72.0 °F 53% 29.92 in 10.0 mi WSW 19.6 mph - N/A   Clear
12:53 PM 91.9 °F 99.5 °F 72.0 °F 52% 29.90 in 10.0 mi SW 16.1 mph 25.3 mph N/A   Clear
1:53 PM 93.9 °F 102.1 °F 72.0 °F 49% 29.88 in 10.0 mi WSW 18.4 mph 26.5 mph N/A   Clear
2:53 PM 93.9 °F 100.3 °F 70.0 °F 46% 29.85 in 10.0 mi SW 20.7 mph 26.5 mph N/A   Partly Cloudy
3:53 PM 95.0 °F 101.3 °F 70.0 °F 44% 29.83 in 10.0 mi SW 18.4 mph 25.3 mph N/A   Partly Cloudy
4:53 PM 95.0 °F 101.3 °F 70.0 °F 44% 29.81 in 10.0 mi SW 17.3 mph 25.3 mph N/A   Scattered Clouds
5:53 PM 93.0 °F 99.0 °F 70.0 °F 47% 29.79 in 10.0 mi SW 21.9 mph 27.6 mph N/A   Mostly Cloudy
6:53 PM 91.9 °F 98.4 °F 71.1 °F 50% 29.78 in 10.0 mi SW 15.0 mph - N/A   Clear
7:53 PM 90.0 °F 96.4 °F 71.1 °F 54% 29.79 in 10.0 mi SW 12.7 mph - N/A   Partly Cloudy
8:53 PM 87.1 °F 94.5 °F 73.0 °F 63% 29.79 in 10.0 mi SW 10.4 mph - N/A   Mostly Cloudy
9:53 PM 82.9 °F 88.8 °F 73.0 °F 72% 29.79 in 10.0 mi SW 9.2 mph - N/A   Clear
10:53 PM 82.9 °F 88.8 °F 73.0 °F 72% 29.79 in 10.0 mi SW 13.8 mph - N/A   Partly Cloudy
11:53 PM 82.9 °F 88.8 °F 73.0 °F 72% 29.80 in 10.0 mi SW 11.5 mph - N/A   Scattered Clouds